DW1995 Weather Reports


time (UTC)temp
C
wind
direction
speed
KPH
gust
KPH
rain 1hr
cm
rain 24hr
cm
rain mn
cm
humidity
%
barometer
mb
20200226003123 6 241 9.7 33.8 0.00 0.61 0.00 78 999.6
20200226001646 6 240 19.3 38.6 0.00 0.61 0.00 79 999.3
20200226000242 6 304 16.1 40.2 0.00 0.61 0.00 77 999.4
20200225234608 6 291 17.7 43.5 0.00 0.61 0.00 77 999.2
20200225233225 7 236 16.1 35.4 0.00 0.61 0.00 76 999.2
20200225231657 7 241 9.7 41.8 0.00 0.61 0.00 76 999.1
20200225230307 7 265 9.7 29.0 0.00 0.61 0.00 76 999.0
20200225224550 7 237 12.9 30.6 0.00 0.61 0.61 76 999.3
20200225223107 7 286 6.4 32.2 0.00 0.61 0.61 76 999.5
20200225221553 7 213 14.5 32.2 0.00 0.61 0.61 77 999.6
20200225220106 7 284 12.9 30.6 0.00 0.61 0.61 79 999.7
20200225214622 7 245 8.0 25.7 0.00 0.61 0.61 79 999.9
20200225213127 7 263 8.0 29.0 0.00 0.61 0.61 78 1000.2
20200225211613 7 261 12.9 29.0 0.00 0.61 0.61 78 1000.2
20200225210137 7 270 9.7 38.6 0.00 0.61 0.61 79 1000.5
20200225204534 7 260 8.0 22.5 0.00 0.61 0.61 76 1000.7
20200225203041 7 274 8.0 25.7 0.00 0.61 0.61 74 1000.8
20200225201538 7 238 6.4 19.3 0.00 0.61 0.61 75 1000.7
20200225200043 7 256 4.8 22.5 0.00 0.61 0.61 76 1000.8
20200225194531 7 267 6.4 20.9 0.00 0.61 0.61 76 1000.7
20200225193026 7 271 9.7 27.4 0.00 0.61 0.61 75 1001.3
20200225191604 7 254 12.9 25.7 0.00 0.61 0.61 76 1001.3
20200225190030 7 264 11.3 37.0 0.00 0.61 0.61 76 1001.5
20200225184533 7 250 11.3 32.2 0.00 0.61 0.61 77 1001.6
20200225183043 7 269 12.9 38.6 0.00 0.61 0.61 78 1001.9
20200225181533 8 264 11.3 29.0 0.00 0.61 0.61 78 1002.0
20200225180130 8 255 6.4 29.0 0.00 0.61 0.61 78 1002.0
20200225174547 8 244 9.7 24.1 0.00 0.61 0.61 78 1002.2
20200225173016 8 241 14.5 35.4 0.00 0.61 0.61 79 1002.5
20200225171608 8 248 11.3 24.1 0.00 0.61 0.61 81 1002.0
20200225170048 8 226 22.5 40.2 0.00 0.61 0.61 83 1002.0
20200225164522 8 253 14.5 32.2 0.00 0.61 0.61 84 1001.7
20200225163112 8 248 12.9 29.0 0.00 0.61 0.61 85 1001.8
20200225161518 8 273 9.7 32.2 0.00 0.61 0.61 83 1001.8
20200225160123 8 268 9.7 24.1 0.00 0.61 0.61 83 1001.8
20200225154546 8 261 8.0 19.3 0.00 0.61 0.61 83 1002.0
20200225153010 8 259 9.7 25.7 0.00 0.61 0.61 84 1002.4
20200225151510 8 252 9.7 22.5 0.00 0.61 0.61 86 1002.6
20200225150010 8 283 14.5 32.2 0.00 0.61 0.61 88 1002.7
20200225144513 8 259 11.3 27.4 0.00 0.61 0.61 90 1003.1
20200225143003 8 264 9.7 25.7 0.00 0.61 0.61 88 1003.4
20200225141511 8 294 12.9 35.4 0.00 0.61 0.61 88 1003.3
20200225140003 8 260 9.7 32.2 0.00 0.61 0.61 87 1003.4
20200225134501 8 281 8.0 29.0 0.03 0.61 0.61 87 1003.4
20200225133226 8 257 17.7 29.0 0.05 0.61 0.61 87 1003.4
20200225133002 8 259 14.5 29.0 0.05 0.61 0.61 87 1003.5
20200225131656 7 232 11.3 27.4 0.05 0.61 0.61 88 1003.5
20200225130128 7 267 9.7 35.4 0.13 0.61 0.61 89 1004.0
20200225124642 7 263 9.7 33.8 0.15 0.61 0.61 89 1004.3
20200225123220 7 270 6.4 27.4 0.15 0.58 0.58 89 1004.6
20200225121606 7 313 8.0 29.0 0.18 0.56 0.56 89 1004.7
20200225120129 7 277 12.9 29.0 0.15 0.48 0.48 88 1004.9
20200225114617 7 304 11.3 37.0 0.20 0.46 0.46 88 1005.0
20200225113221 7 250 11.3 35.4 0.23 0.43 0.43 88 1005.2
20200225111522 7 259 8.0 38.6 0.15 0.38 0.38 88 1005.2
20200225110009 7 360 11.3 25.7 0.15 0.33 0.33 88 1005.5
20200225104504 7 314 11.3 29.0 0.13 0.25 0.25 88 1005.9
20200225103004 7 263 6.4 30.6 0.13 0.23 0.23 89 1005.8
20200225101503 7 195 8.0 27.4 0.13 0.23 0.23 89 1005.9
20200225100001 7 259 8.0 38.6 0.08 0.18 0.18 88 1005.8
20200225094702 7 213 11.3 37.0 0.05 0.15 0.15 87 1006.3
20200225093133 7 267 4.8 30.6 0.05 0.10 0.10 87 1006.4
20200225091633 7 260 8.0 37.0 0.08 0.10 0.10 87 1006.6
20200225090245 7 252 17.7 43.5 0.10 0.10 0.10 87 1006.7
20200225084559 6 271 12.9 38.6 0.10 0.10 0.10 88 1006.9
20200225083145 6 294 11.3 27.4 0.05 0.05 0.05 88 1006.8
20200225081550 7 234 14.5 29.0 0.03 0.03 0.03 86 1007.0
20200225080135 7 360 9.7 38.6 0.00 0.00 0.00 82 1006.9
20200225074623 7 246 11.3 25.7 0.00 0.00 0.00 78 1006.7
20200225073042 7 252 6.4 32.2 0.00 0.00 0.00 77 1006.8
20200225071551 7 238 9.7 20.9 0.00 0.00 0.00 78 1006.8
20200225070137 7 223 3.2 20.9 0.00 0.00 0.00 79 1006.8
20200225064541 7 254 3.2 25.7 0.00 0.00 0.00 76 1006.6
20200225063102 8 267 12.9 40.2 0.00 0.00 0.00 74 1006.9
20200225061642 8 256 8.0 19.3 0.00 0.00 0.00 73 1007.0
20200225060034 8 267 1.6 35.4 0.00 0.00 0.00 72 1007.1
20200225054527 8 314 8.0 29.0 0.00 0.00 0.00 70 1007.1
20200225053022 8 229 6.4 25.7 0.00 0.00 0.00 69 1007.1
20200225050036 8 281 9.7 29.0 0.00 0.00 0.00 67 1007.2
20200225044517 9 280 4.8 24.1 0.00 0.00 0.00 66 1007.5
20200225043045 9 293 11.3 38.6 0.00 0.00 0.00 64 1007.4
20200225041529 10 273 8.0 30.6 0.00 0.00 0.00 63 1007.5
20200225040012 10 254 4.8 22.5 0.00 0.00 0.00 63 1007.1
20200225034508 10 270 12.9 35.4 0.00 0.00 0.00 65 1007.3
20200225033145 10 249 0.0 16.1 0.00 0.00 0.00 66 1007.5
20200225031719 10 275 3.2 19.3 0.00 0.00 0.00 65 1007.8
20200225030144 11 302 6.4 29.0 0.00 0.00 0.00 61 1007.8
20200225024625 11 265 3.2 22.5 0.00 0.00 0.00 62 1007.8
20200225023054 11 227 4.8 22.5 0.00 0.00 0.00 61 1007.7
20200225021625 11 192 6.4 30.6 0.00 0.00 0.00 60 1008.0
20200225020120 11 234 4.8 29.0 0.00 0.00 0.00 59 1008.0
20200225014641 12 273 6.4 29.0 0.00 0.00 0.00 57 1007.7
20200225013150 12 272 8.0 22.5 0.00 0.00 0.00 58 1008.1
20200225011623 12 254 6.4 37.0 0.00 0.00 0.00 58 1008.6
20200225010123 12 263 11.3 32.2 0.00 0.00 0.00 58 1008.5
20200225004607 12 209 14.5 38.6 0.00 0.00 0.00 55 1008.6